CES8100 ZSPD-ZSNJ

Flight info

Callsign CES8100
Flight time 0h 38m
Altitude 15700
Route SAS84D SASAN R343 ESBAG ESB52F
Aircraft A359/H-SDE2E3GHIJ3J4J5LM1ORWXY/LB1D1

Departure

Time 2026-05-05 14:13
Airport Shanghai Pudong International Airport (ZSPD)

Arrival

Time 2026-05-05 14:51
Airport Nanjing Lukou International Airport (ZSNJ)
Time Latitude Longitude Altitude Speed Heading
2026-05-05 13:38 31.13603 121.80215 29 ft 0 kts 72°
2026-05-05 13:59 31.13600 121.80206 28 ft 3 kts 72°
2026-05-05 13:59 31.13595 121.80185 28 ft 3 kts 72°
2026-05-05 14:00 31.13576 121.80145 26 ft 3 kts 19°
2026-05-05 14:00 31.13562 121.80141 28 ft 3 kts 351°
2026-05-05 14:00 31.13557 121.80142 29 ft 0 kts 347°
2026-05-05 14:04 31.13559 121.80142 29 ft 1 kts 347°
2026-05-05 14:05 31.13612 121.80125 29 ft 11 kts 340°
2026-05-05 14:05 31.13685 121.80076 29 ft 13 kts 339°
2026-05-05 14:05 31.13786 121.80038 29 ft 17 kts 341°
2026-05-05 14:05 31.13910 121.79991 29 ft 20 kts 342°
2026-05-05 14:06 31.14031 121.79945 29 ft 16 kts 342°
2026-05-05 14:06 31.14082 121.79912 29 ft 4 kts 290°
2026-05-05 14:06 31.14080 121.79865 29 ft 8 kts 260°
2026-05-05 14:06 31.14057 121.79772 29 ft 14 kts 256°
2026-05-05 14:07 31.14034 121.79648 29 ft 17 kts 257°
2026-05-05 14:07 31.14081 121.79571 29 ft 7 kts 346°
2026-05-05 14:07 31.14174 121.79551 29 ft 17 kts 347°
2026-05-05 14:07 31.14302 121.79506 29 ft 21 kts 342°
2026-05-05 14:08 31.14452 121.79450 29 ft 24 kts 342°
2026-05-05 14:08 31.14622 121.79385 30 ft 27 kts 342°
2026-05-05 14:08 31.14810 121.79314 30 ft 30 kts 342°
2026-05-05 14:08 31.15016 121.79236 29 ft 32 kts 342°
2026-05-05 14:09 31.15233 121.79155 29 ft 29 kts 342°
2026-05-05 14:09 31.15436 121.79078 29 ft 32 kts 342°
2026-05-05 14:09 31.15656 121.78995 29 ft 34 kts 342°
2026-05-05 14:09 31.15880 121.78910 29 ft 31 kts 342°
2026-05-05 14:10 31.15919 121.78896 29 ft 0 kts 342°
2026-05-05 14:11 31.15943 121.78887 29 ft 8 kts 342°
2026-05-05 14:11 31.15962 121.78852 22 ft 5 kts 271°
2026-05-05 14:11 31.15951 121.78795 29 ft 10 kts 254°
2026-05-05 14:12 31.15926 121.78705 28 ft 13 kts 248°
2026-05-05 14:12 31.15899 121.78687 28 ft 3 kts 166°
2026-05-05 14:12 31.15860 121.78701 29 ft 18 kts 163°
2026-05-05 14:12 31.15454 121.78853 28 ft 102 kts 162°
2026-05-05 14:13 31.14553 121.79192 85 ft 165 kts 162°
2026-05-05 14:13 31.13441 121.79625 915 ft 166 kts 163°
2026-05-05 14:13 31.12308 121.80053 1671 ft 182 kts 164°
2026-05-05 14:13 31.11016 121.80501 2036 ft 205 kts 166°
2026-05-05 14:14 31.09566 121.80972 2388 ft 226 kts 166°
2026-05-05 14:14 31.08002 121.81486 2804 ft 241 kts 165°
2026-05-05 14:14 31.06356 121.82037 2970 ft 248 kts 165°
2026-05-05 14:14 31.04691 121.82598 2999 ft 249 kts 165°
2026-05-05 14:15 31.03024 121.83124 2992 ft 249 kts 168°
2026-05-05 14:15 31.01301 121.83156 2996 ft 248 kts 191°
2026-05-05 14:15 30.99744 121.82330 3042 ft 248 kts 216°
2026-05-05 14:15 30.98621 121.80781 3241 ft 259 kts 240°
2026-05-05 14:16 30.97985 121.78787 3879 ft 265 kts 249°
2026-05-05 14:16 30.97434 121.76729 4646 ft 266 kts 251°
2026-05-05 14:16 30.96883 121.74675 5344 ft 268 kts 251°
2026-05-05 14:16 30.96366 121.72575 5775 ft 270 kts 258°
2026-05-05 14:17 30.96375 121.70388 6011 ft 272 kts 280°
2026-05-05 14:17 30.96781 121.68222 6510 ft 275 kts 282°
2026-05-05 14:17 30.97206 121.66050 7232 ft 275 kts 282°
2026-05-05 14:17 30.97620 121.63865 7897 ft 277 kts 282°
2026-05-05 14:18 30.98034 121.61656 8554 ft 280 kts 281°
2026-05-05 14:18 30.98447 121.59432 9225 ft 282 kts 281°
2026-05-05 14:18 30.98861 121.57188 9875 ft 286 kts 281°
2026-05-05 14:18 30.99285 121.54894 10379 ft 294 kts 281°
2026-05-05 14:19 30.99723 121.52507 10632 ft 309 kts 281°
2026-05-05 14:19 31.00184 121.50000 10879 ft 323 kts 281°
2026-05-05 14:19 31.00664 121.47388 11125 ft 336 kts 281°
2026-05-05 14:19 31.01158 121.44716 11429 ft 345 kts 281°
2026-05-05 14:20 31.01666 121.41962 11924 ft 348 kts 281°
2026-05-05 14:20 31.02171 121.39209 12418 ft 350 kts 282°
2026-05-05 14:20 31.02684 121.36416 12867 ft 353 kts 281°
2026-05-05 14:20 31.03200 121.33599 13280 ft 358 kts 282°
2026-05-05 14:21 31.03721 121.30751 13794 ft 359 kts 282°
2026-05-05 14:21 31.04241 121.27912 14242 ft 360 kts 282°
2026-05-05 14:21 31.04763 121.25053 14681 ft 361 kts 282°
2026-05-05 14:21 31.05286 121.22183 15126 ft 363 kts 282°
2026-05-05 14:22 31.05815 121.19289 15512 ft 366 kts 282°
2026-05-05 14:22 31.06575 121.16454 15690 ft 372 kts 295°
2026-05-05 14:22 31.08133 121.13948 15720 ft 392 kts 315°
2026-05-05 14:22 31.10430 121.12166 15713 ft 403 kts 335°
2026-05-05 14:23 31.13150 121.11370 15722 ft 407 kts 353°
2026-05-05 14:23 31.15989 121.11452 15725 ft 409 kts
2026-05-05 14:23 31.18827 121.11624 15726 ft 408 kts
2026-05-05 14:23 31.21658 121.11647 15724 ft 408 kts 359°
2026-05-05 14:24 31.24505 121.11589 15724 ft 408 kts 358°
2026-05-05 14:24 31.27336 121.11487 15724 ft 408 kts 357°
2026-05-05 14:24 31.30167 121.11285 15708 ft 407 kts 351°
2026-05-05 14:24 31.32855 121.10299 15725 ft 405 kts 333°
2026-05-05 14:25 31.35125 121.08402 15724 ft 402 kts 315°
2026-05-05 14:25 31.36777 121.05785 15719 ft 401 kts 298°
2026-05-05 14:25 31.37836 121.02767 15721 ft 400 kts 290°
2026-05-05 14:25 31.38746 120.99697 15720 ft 399 kts 290°
2026-05-05 14:26 31.39656 120.96637 15718 ft 399 kts 290°
2026-05-05 14:26 31.40576 120.93570 15714 ft 399 kts 290°
2026-05-05 14:26 31.41499 120.90504 15714 ft 399 kts 290°
2026-05-05 14:26 31.42424 120.87436 15717 ft 399 kts 290°
2026-05-05 14:27 31.43347 120.84376 15716 ft 399 kts 290°
2026-05-05 14:27 31.44272 120.81306 15715 ft 399 kts 290°
2026-05-05 14:27 31.45197 120.78239 15715 ft 399 kts 290°
2026-05-05 14:27 31.46119 120.75176 15714 ft 399 kts 290°
2026-05-05 14:28 31.47043 120.72105 15713 ft 399 kts 290°
2026-05-05 14:28 31.47965 120.69040 15713 ft 399 kts 290°
2026-05-05 14:28 31.48875 120.66010 15712 ft 399 kts 290°
2026-05-05 14:28 31.49796 120.62943 15711 ft 399 kts 290°
2026-05-05 14:29 31.50714 120.59878 15706 ft 399 kts 290°
2026-05-05 14:29 31.51636 120.56802 15707 ft 399 kts 290°
2026-05-05 14:29 31.52554 120.53734 15706 ft 399 kts 290°
2026-05-05 14:29 31.53473 120.50659 15702 ft 399 kts 290°
2026-05-05 14:30 31.54389 120.47591 15700 ft 399 kts 290°
2026-05-05 14:30 31.55304 120.44522 15701 ft 399 kts 290°
2026-05-05 14:30 31.56221 120.41446 15703 ft 399 kts 290°
2026-05-05 14:30 31.57135 120.38375 15697 ft 399 kts 290°
2026-05-05 14:31 31.58051 120.35296 15697 ft 400 kts 290°
2026-05-05 14:31 31.58868 120.32185 15692 ft 401 kts 284°
2026-05-05 14:31 31.59217 120.28952 15701 ft 402 kts 276°
2026-05-05 14:31 31.59381 120.25679 15692 ft 401 kts 275°
2026-05-05 14:32 31.59529 120.22420 15693 ft 401 kts 275°
2026-05-05 14:32 31.59682 120.19163 15693 ft 401 kts 275°
2026-05-05 14:32 31.59839 120.15892 15684 ft 401 kts 275°
2026-05-05 14:32 31.59996 120.12628 15684 ft 401 kts 275°
2026-05-05 14:33 31.60154 120.09365 15686 ft 401 kts 275°
2026-05-05 14:33 31.60310 120.06114 15685 ft 401 kts 275°
2026-05-05 14:33 31.60467 120.02847 15679 ft 401 kts 275°
2026-05-05 14:33 31.60624 119.99566 15678 ft 401 kts 275°
2026-05-05 14:34 31.60779 119.96309 15572 ft 400 kts 275°
2026-05-05 14:34 31.60932 119.93062 15387 ft 394 kts 275°
2026-05-05 14:34 31.61080 119.89918 15285 ft 379 kts 275°
2026-05-05 14:34 31.61228 119.86853 14704 ft 377 kts 275°
2026-05-05 14:35 31.61374 119.83777 13943 ft 377 kts 275°
2026-05-05 14:35 31.61514 119.80753 13198 ft 375 kts 275°
2026-05-05 14:35 31.61655 119.77678 12493 ft 370 kts 275°
2026-05-05 14:35 31.61790 119.74720 11821 ft 366 kts 275°
2026-05-05 14:36 31.61925 119.71759 11194 ft 361 kts 275°
2026-05-05 14:36 31.62070 119.68890 11040 ft 342 kts 277°
2026-05-05 14:36 31.62522 119.66237 10949 ft 323 kts 290°
2026-05-05 14:36 31.63285 119.63842 10831 ft 305 kts 294°
2026-05-05 14:37 31.64056 119.61592 10722 ft 290 kts 294°
2026-05-05 14:37 31.64787 119.59450 10621 ft 276 kts 294°
2026-05-05 14:37 31.65483 119.57393 10494 ft 269 kts 294°
2026-05-05 14:37 31.66174 119.55350 10382 ft 270 kts 294°
2026-05-05 14:38 31.66865 119.53307 10174 ft 269 kts 294°
2026-05-05 14:38 31.67549 119.51280 9857 ft 268 kts 294°
2026-05-05 14:38 31.68017 119.49899 9665 ft 279 kts 294°
2026-05-05 14:38 31.68748 119.47724 9541 ft 285 kts 291°
2026-05-05 14:39 31.69643 119.44932 9368 ft 268 kts 291°
2026-05-05 14:39 31.70293 119.42931 9217 ft 257 kts 291°
2026-05-05 14:39 31.70721 119.41628 9104 ft 249 kts 291°
2026-05-05 14:39 31.71522 119.39212 8856 ft 228 kts 291°
2026-05-05 14:40 31.72081 119.37535 8615 ft 215 kts 290°
2026-05-05 14:40 31.72626 119.35905 8129 ft 215 kts 290°
2026-05-05 14:40 31.72986 119.34828 7817 ft 215 kts 290°
2026-05-05 14:40 31.73717 119.32646 7183 ft 215 kts 289°
2026-05-05 14:41 31.74271 119.31013 6688 ft 216 kts 289°
2026-05-05 14:41 31.74830 119.29360 6152 ft 218 kts 288°
2026-05-05 14:41 31.75378 119.27742 6017 ft 208 kts 288°
2026-05-05 14:41 31.75902 119.26196 5890 ft 199 kts 288°
2026-05-05 14:42 31.76406 119.24705 5779 ft 195 kts 287°
2026-05-05 14:42 31.76736 119.23725 5693 ft 196 kts 287°
2026-05-05 14:42 31.77405 119.21735 5528 ft 196 kts 287°
2026-05-05 14:42 31.77906 119.20250 5413 ft 196 kts 287°
2026-05-05 14:43 31.78409 119.18766 5295 ft 196 kts 288°
2026-05-05 14:43 31.79086 119.17388 5186 ft 193 kts 307°
2026-05-05 14:43 31.80100 119.16414 5105 ft 185 kts 322°
2026-05-05 14:43 31.81192 119.15614 4939 ft 191 kts 324°
2026-05-05 14:44 31.82367 119.14768 4868 ft 203 kts 324°
2026-05-05 14:44 31.83582 119.13893 4805 ft 205 kts 324°
2026-05-05 14:44 31.84692 119.12900 4744 ft 201 kts 306°
2026-05-05 14:44 31.85187 119.11435 4546 ft 188 kts 265°
2026-05-05 14:45 31.84836 119.10018 4266 ft 179 kts 237°
2026-05-05 14:45 31.84200 119.08807 4174 ft 167 kts 234°
2026-05-05 14:45 31.83594 119.07707 4010 ft 160 kts 233°
2026-05-05 14:45 31.82991 119.06617 3733 ft 159 kts 231°
2026-05-05 14:46 31.82380 119.05533 3453 ft 159 kts 234°
2026-05-05 14:46 31.81798 119.04426 3187 ft 158 kts 234°
2026-05-05 14:46 31.81232 119.03343 2977 ft 153 kts 233°
2026-05-05 14:46 31.80857 119.02631 2834 ft 149 kts 232°
2026-05-05 14:47 31.80140 119.01289 2592 ft 144 kts 232°
2026-05-05 14:47 31.79613 119.00300 2396 ft 142 kts 231°
2026-05-05 14:47 31.79095 118.99327 2205 ft 139 kts 230°
2026-05-05 14:47 31.78586 118.98373 2024 ft 136 kts 230°
2026-05-05 14:48 31.78086 118.97437 1831 ft 134 kts 230°
2026-05-05 14:48 31.77600 118.96523 1670 ft 130 kts 230°
2026-05-05 14:48 31.77126 118.95635 1512 ft 127 kts 230°
2026-05-05 14:48 31.76656 118.94758 1357 ft 128 kts 232°
2026-05-05 14:49 31.76183 118.93871 1176 ft 129 kts 233°
2026-05-05 14:49 31.75704 118.92973 1007 ft 130 kts 233°
2026-05-05 14:49 31.75223 118.92074 850 ft 131 kts 234°
2026-05-05 14:49 31.74740 118.91168 675 ft 131 kts 236°
2026-05-05 14:50 31.74257 118.90264 527 ft 131 kts 236°
2026-05-05 14:50 31.73780 118.89369 367 ft 131 kts 237°
2026-05-05 14:50 31.73295 118.88460 168 ft 131 kts 237°
2026-05-05 14:50 31.72816 118.87565 59 ft 124 kts 237°
2026-05-05 14:51 31.72471 118.86912 57 ft 54 kts 238°
2026-05-05 14:51 31.72362 118.86706 55 ft 18 kts 239°
2026-05-05 14:51 31.72312 118.86563 61 ft 20 kts 255°
2026-05-05 14:51 31.72299 118.86466 59 ft 0 kts 266°
2026-05-05 14:52 31.72299 118.86457 61 ft 6 kts 266°
2026-05-05 14:52 31.72295 118.86395 61 ft 9 kts 266°
2026-05-05 14:52 31.72306 118.86310 57 ft 12 kts 298°
2026-05-05 14:52 31.72346 118.86293 62 ft 2 kts 38°
2026-05-05 14:53 31.72363 118.86327 55 ft 11 kts 58°
2026-05-05 14:53 31.72412 118.86419 59 ft 15 kts 58°
2026-05-05 14:53 31.72472 118.86536 58 ft 18 kts 58°
2026-05-05 14:53 31.72533 118.86641 55 ft 10 kts 35°
2026-05-05 14:54 31.72603 118.86623 59 ft 12 kts 326°
2026-05-05 14:54 31.72686 118.86579 60 ft 12 kts 10°
2026-05-05 14:54 31.72721 118.86630 56 ft 9 kts 60°
2026-05-05 14:54 31.72759 118.86709 57 ft 13 kts 60°
2026-05-05 14:55 31.72806 118.86776 57 ft 4 kts 15°
2026-05-05 14:55 31.72834 118.86767 60 ft 6 kts 341°
2026-05-05 14:55 31.72860 118.86750 57 ft 0 kts 328°
2026-05-05 14:55 31.84300 119.08989 4192 ft 170 kts 234°
2026-05-05 14:56 31.75243 118.92112 856 ft 8 kts 234°
2026-05-05 14:56 31.74722 118.91136 670 ft 131 kts 236°
2026-05-05 14:56 31.74248 118.90245 523 ft 131 kts 236°
2026-05-05 14:57 31.74143 118.90050 475 ft 168 kts 237°
2026-05-05 14:57 31.73692 118.89202 324 ft 132 kts 237°
2026-05-05 14:57 31.73206 118.88294 130 ft 132 kts 237°
2026-05-05 14:58 31.72737 118.87416 55 ft 118 kts 238°
2026-05-05 14:58 31.74268 118.90284 536 ft 131 kts 236°
2026-05-05 14:58 31.73790 118.89387 370 ft 132 kts 237°
2026-05-05 14:58 31.73304 118.88477 173 ft 132 kts 237°
2026-05-05 14:59 31.72821 118.87573 56 ft 124 kts 237°
2026-05-05 14:59 31.83476 119.07493 3982 ft 159 kts 233°
2026-05-05 14:59 31.80404 119.01782 2682 ft 145 kts 232°
2026-05-05 15:00 31.78547 118.98300 2003 ft 136 kts 230°
2026-05-05 15:00 31.78176 118.97605 1874 ft 134 kts 230°